HK4RAU-90 Weather Reports


time (UTC)temp
C
wind
direction
speed
KPH
gust
KPH
rain 1hr
cm
rain 24hr
cm
rain mn
cm
humidity
%
barometer
mb
20260507123026 19 193 1.6 1.6 0.00 0.00 0.00 97 1014.0
20260507122720 20 193 1.6 1.6 0.00 0.00 0.00 97 1014.0
20260507122413 19 193 1.6 1.6 0.00 0.00 0.00 97 1014.0
20260507122112 20 193 1.6 1.6 0.00 0.00 0.00 97 1014.0
20260507121210 20 193 1.6 1.6 0.00 0.00 0.00 97 1014.0
20260507120858 20 193 1.6 1.6 0.00 0.00 0.00 97 1014.0
20260507120557 21 193 1.6 1.6 0.00 0.00 0.00 97 1014.0
20260507120250 21 193 1.6 1.6 0.00 0.00 0.00 97 1014.0
20260507115948 21 193 1.6 1.6 0.00 0.00 0.00 97 1014.0
20260507115647 21 193 1.6 1.6 0.00 0.00 0.00 97 1014.0
20260507115340 21 193 1.6 1.6 0.00 0.00 0.00 97 1014.0
20260507114735 22 193 1.6 3.2 0.00 0.00 0.00 97 1014.0
20260507114427 21 193 1.6 1.6 0.00 0.00 0.00 97 1014.0
20260507113819 22 193 1.6 3.2 0.00 0.00 0.00 97 1014.0
20260507113511 18 213 1.6 1.6 0.00 0.00 0.00 99 1014.0
20260507113204 18 213 1.6 1.6 0.00 0.00 0.00 99 1014.0
20260507112853 19 213 1.6 1.6 0.00 0.00 0.00 99 1013.0
20260507112546 19 213 1.6 1.6 0.00 0.00 0.00 99 1013.0
20260507112240 19 213 1.6 1.6 0.00 0.00 0.00 99 1013.0
20260507111933 20 213 1.6 1.6 0.00 0.00 0.00 99 1013.0
20260507111626 19 213 1.6 1.6 0.00 0.00 0.00 99 1013.0
20260507111325 20 213 1.6 1.6 0.00 0.00 0.00 99 1013.0
20260507111017 20 213 1.6 1.6 0.00 0.00 0.00 99 1013.0
20260507110711 20 213 1.6 1.6 0.00 0.00 0.00 99 1013.0
20260507110356 21 213 1.6 1.6 0.00 0.00 0.00 99 1013.0
20260507110049 21 213 1.6 1.6 0.00 0.00 0.00 99 1013.0
20260507105738 21 213 1.6 1.6 0.00 0.00 0.00 99 1013.0
20260507105431 18 189 1.6 1.6 0.00 0.00 0.00 99 1013.0
20260507105124 21 213 1.6 1.6 0.00 0.00 0.00 99 1013.0
20260507104823 18 189 1.6 1.6 0.00 0.00 0.00 99 1013.0
20260507104520 18 189 1.6 1.6 0.00 0.00 0.00 99 1013.0
20260507104213 18 189 1.6 1.6 0.00 0.00 0.00 99 1013.0
20260507103907 18 189 1.6 1.6 0.00 0.00 0.00 99 1013.0
20260507103559 18 189 1.6 1.6 0.00 0.00 0.00 99 1013.0
20260507103252 18 189 1.6 1.6 0.00 0.00 0.00 99 1013.0
20260507102946 19 189 1.6 1.6 0.00 0.00 0.00 99 1013.0
20260507102639 19 189 1.6 1.6 0.00 0.00 0.00 99 1013.0
20260507102338 19 189 1.6 1.6 0.00 0.00 0.00 99 1013.0
20260507102031 20 189 1.6 1.6 0.00 0.00 0.00 99 1013.0
20260507101730 19 189 1.6 1.6 0.00 0.00 0.00 99 1013.0
20260507101418 19 189 1.6 1.6 0.00 0.00 0.00 99 1013.0
20260507101112 20 189 1.6 1.6 0.00 0.00 0.00 99 1013.0
20260507100811 20 189 1.6 1.6 0.00 0.00 0.00 99 1013.0
20260507100509 20 189 1.6 1.6 0.00 0.00 0.00 99 1013.0
20260507100208 20 189 1.6 1.6 0.00 0.00 0.00 99 1013.0
20260507095902 20 189 1.6 1.6 0.00 0.00 0.00 99 1013.0
20260507095555 21 189 1.6 1.6 0.00 0.00 0.00 99 1013.0
20260507095248 20 189 1.6 1.6 0.00 0.00 0.00 99 1013.0
20260507094943 21 189 1.6 1.6 0.00 0.00 0.00 99 1013.0
20260507094637 21 189 1.6 1.6 0.00 0.00 0.00 99 1013.0
20260507094335 18 189 1.6 1.6 0.00 0.00 0.00 99 1013.0
20260507094034 18 189 1.6 1.6 0.00 0.00 0.00 99 1013.0
20260507093412 18 189 1.6 1.6 0.00 0.00 0.00 99 1013.0
20260507093105 18 189 1.6 1.6 0.00 0.00 0.00 99 1013.0
20260507092759 19 132 0.0 0.0 0.00 0.00 0.00 99 1013.0
20260507092449 20 132 0.0 0.0 0.00 0.00 0.00 99 1013.0
20260507091837 21 132 0.0 0.0 0.00 0.00 0.00 99 1013.0
20260507091531 20 132 0.0 0.0 0.00 0.00 0.00 99 1013.0
20260507091222 20 132 0.0 0.0 0.00 0.00 0.00 99 1013.0
20260507090916 21 132 0.0 0.0 0.00 0.00 0.00 99 1013.0
20260507090609 21 132 0.0 0.0 0.00 0.00 0.00 99 1013.0
20260507090303 18 273 1.6 0.0 0.00 0.00 0.00 98 1012.0
20260507085956 18 273 1.6 0.0 0.00 0.00 0.00 98 1012.0
20260507085655 18 273 1.6 0.0 0.00 0.00 0.00 98 1012.0
20260507085343 19 273 1.6 0.0 0.00 0.00 0.00 98 1012.0
20260507085037 20 273 1.6 0.0 0.00 0.00 0.00 98 1012.0
20260507084730 18 273 1.6 0.0 0.00 0.00 0.00 98 1012.0
20260507084419 19 273 1.6 0.0 0.00 0.00 0.00 98 1012.0
20260507084117 20 273 1.6 0.0 0.00 0.00 0.00 98 1012.0
20260507083816 20 273 1.6 0.0 0.00 0.00 0.00 98 1012.0
20260507083510 20 273 1.6 0.0 0.00 0.00 0.00 98 1012.0
20260507083204 20 273 1.6 0.0 0.00 0.00 0.00 98 1012.0
20260507082856 20 273 1.6 0.0 0.00 0.00 0.00 98 1012.0
20260507082548 21 273 1.6 0.0 0.00 0.00 0.00 98 1012.0
20260507082247 21 273 1.6 0.0 0.00 0.00 0.00 98 1012.0
20260507081940 21 273 1.6 0.0 0.00 0.00 0.00 98 1012.0
20260507081639 21 273 1.6 0.0 0.00 0.00 0.00 98 1012.0
20260507081333 21 273 1.6 0.0 0.00 0.00 0.00 98 1012.0
20260507081026 21 273 1.6 0.0 0.00 0.00 0.00 98 1012.0
20260507080720 18 273 1.6 0.0 0.00 0.00 0.00 98 1012.0
20260507080413 18 273 1.6 0.0 0.00 0.00 0.00 98 1012.0
20260507080107 18 273 1.6 0.0 0.00 0.00 0.00 98 1012.0
20260507075755 18 273 1.6 0.0 0.00 0.00 0.00 98 1012.0
20260507075449 19 273 1.6 0.0 0.00 0.00 0.00 98 1012.0
20260507075142 19 273 1.6 0.0 0.00 0.00 0.00 98 1012.0
20260507074840 19 273 1.6 0.0 0.00 0.00 0.00 98 1012.0
20260507074534 19 273 1.6 0.0 0.00 0.00 0.00 98 1012.0
20260507074228 20 273 1.6 0.0 0.00 0.00 0.00 98 1012.0
20260507073921 20 273 1.6 0.0 0.00 0.00 0.00 98 1012.0
20260507073618 20 273 1.6 0.0 0.00 0.00 0.00 98 1012.0
20260507073316 20 273 1.6 0.0 0.00 0.00 0.00 98 1012.0
20260507073010 20 251 0.0 0.0 0.00 0.00 0.00 98 1013.0
20260507072702 20 251 0.0 0.0 0.00 0.00 0.00 98 1013.0
20260507072355 20 251 0.0 0.0 0.00 0.00 0.00 98 1013.0
20260507072049 20 251 0.0 0.0 0.00 0.00 0.00 98 1013.0
20260507071737 21 251 0.0 0.0 0.00 0.00 0.00 98 1013.0
20260507071426 21 251 0.0 0.0 0.00 0.00 0.00 98 1013.0
20260507071119 18 251 0.0 0.0 0.00 0.00 0.00 98 1013.0
20260507070817 21 251 0.0 0.0 0.00 0.00 0.00 98 1013.0
20260507070516 18 251 0.0 0.0 0.00 0.00 0.00 98 1013.0
20260507070209 18 251 0.0 0.0 0.00 0.00 0.00 98 1013.0
20260507065908 19 251 0.0 0.0 0.00 0.00 0.00 98 1013.0
20260507065601 19 251 0.0 0.0 0.00 0.00 0.00 98 1013.0
20260507065255 19 251 0.0 0.0 0.00 0.00 0.00 98 1013.0
20260507064948 20 251 0.0 0.0 0.00 0.00 0.00 98 1013.0
20260507064641 20 251 0.0 0.0 0.00 0.00 0.00 98 1013.0
20260507064334 20 251 0.0 0.0 0.00 0.00 0.00 98 1013.0
20260507064028 20 251 0.0 0.0 0.00 0.00 0.00 98 1013.0
20260507063716 20 251 0.0 0.0 0.00 0.00 0.00 98 1013.0
20260507063410 20 251 0.0 0.0 0.00 0.00 0.00 98 1013.0
20260507063104 21 206 0.0 0.0 0.00 0.00 0.00 98 1013.0
20260507062802 21 206 0.0 0.0 0.00 0.00 0.00 98 1013.0
20260507062501 21 206 0.0 0.0 0.00 0.00 0.00 98 1013.0
20260507062154 18 182 1.6 1.6 0.00 0.00 0.00 98 1013.0
20260507061851 18 182 1.6 1.6 0.00 0.00 0.00 98 1013.0
20260507061544 18 182 1.6 1.6 0.00 0.00 0.00 98 1013.0
20260507061243 19 182 1.6 1.6 0.00 0.00 0.00 98 1013.0
20260507060936 19 182 1.6 1.6 0.00 0.00 0.00 98 1013.0
20260507060633 19 182 1.6 1.6 0.00 0.00 0.00 98 1013.0
20260507060330 20 182 1.6 1.6 0.00 0.00 0.00 98 1013.0
20260507060022 20 182 1.6 1.6 0.00 0.00 0.00 98 1013.0
20260507055721 20 182 1.6 1.6 0.00 0.00 0.00 98 1013.0
20260507055414 20 182 1.6 1.6 0.00 0.00 0.00 98 1013.0
20260507055113 20 182 1.6 1.6 0.00 0.00 0.00 98 1013.0
20260507054801 21 182 1.6 1.6 0.00 0.00 0.00 98 1013.0
20260507054454 21 182 1.6 1.6 0.00 0.00 0.00 98 1013.0
20260507054148 21 182 1.6 1.6 0.00 0.00 0.00 98 1013.0
20260507053525 21 182 1.6 1.6 0.00 0.00 0.00 98 1013.0
20260507053223 21 182 1.6 1.6 0.00 0.00 0.00 98 1013.0
20260507052607 18 182 1.6 1.6 0.00 0.00 0.00 97 1014.0
20260507052306 19 182 1.6 1.6 0.00 0.00 0.00 97 1014.0
20260507051958 18 182 1.6 1.6 0.00 0.00 0.00 97 1014.0
20260507051651 19 182 1.6 1.6 0.00 0.00 0.00 97 1014.0
20260507050840 20 182 1.6 1.6 0.00 0.00 0.00 97 1014.0
20260507045819 20 182 1.6 1.6 0.00 0.00 0.00 97 1014.0
20260507045518 20 182 1.6 1.6 0.00 0.00 0.00 97 1014.0
20260507044910 21 182 1.6 1.6 0.00 0.00 0.00 97 1014.0
20260507044603 21 182 1.6 1.6 0.00 0.00 0.00 97 1014.0
20260507044257 21 182 1.6 1.6 0.00 0.00 0.00 97 1014.0
20260507043950 21 182 1.6 1.6 0.00 0.00 0.00 97 1014.0
20260507043649 21 182 1.6 1.6 0.00 0.00 0.00 97 1014.0
20260507043347 22 182 1.6 1.6 0.00 0.00 0.00 97 1015.0
20260507043046 22 182 1.6 1.6 0.00 0.00 0.00 97 1015.0
20260507042745 21 182 1.6 1.6 0.00 0.00 0.00 97 1015.0
20260507042443 22 182 1.6 1.6 0.00 0.00 0.00 97 1015.0
20260507042136 22 182 1.6 1.6 0.00 0.00 0.00 97 1015.0
20260507041834 18 207 1.6 1.6 0.00 0.00 0.00 97 1015.0
20260507041528 19 207 1.6 1.6 0.00 0.00 0.00 97 1015.0
20260507041221 18 207 1.6 1.6 0.00 0.00 0.00 97 1015.0
20260507040920 18 207 1.6 1.6 0.00 0.00 0.00 97 1015.0
20260507040618 19 207 1.6 1.6 0.00 0.00 0.00 97 1015.0
20260507040311 20 207 1.6 1.6 0.00 0.00 0.00 97 1015.0
20260507040005 20 207 1.6 1.6 0.00 0.00 0.00 97 1015.0
20260507035704 20 207 1.6 1.6 0.00 0.00 0.00 97 1015.0
20260507035357 21 207 1.6 1.6 0.00 0.00 0.00 97 1015.0
20260507035055 21 207 1.6 1.6 0.00 0.00 0.00 97 1015.0
20260507034749 20 207 1.6 1.6 0.00 0.00 0.00 97 1015.0
20260507034448 21 207 1.6 1.6 0.00 0.00 0.00 97 1015.0
20260507034146 21 207 1.6 1.6 0.00 0.00 0.00 97 1015.0
20260507033844 22 207 1.6 1.6 0.00 0.00 0.00 97 1015.0
20260507033538 21 207 1.6 1.6 0.00 0.00 0.00 97 1015.0
20260507033226 22 207 1.6 1.6 0.00 0.00 0.00 97 1015.0
20260507032920 22 207 1.6 1.6 0.00 0.00 0.00 97 1015.0
20260507032613 19 213 1.6 1.6 0.00 0.00 0.00 96 1015.0
20260507032312 22 207 1.6 1.6 0.00 0.00 0.00 97 1015.0
20260507032010 19 213 1.6 1.6 0.00 0.00 0.00 96 1015.0
20260507031709 19 213 1.6 1.6 0.00 0.00 0.00 96 1015.0
20260507031407 19 213 1.6 1.6 0.00 0.00 0.00 96 1015.0
20260507031100 20 213 1.6 1.6 0.00 0.00 0.00 96 1015.0
20260507030759 20 213 1.6 1.6 0.00 0.00 0.00 96 1015.0
20260507030447 20 213 1.6 1.6 0.00 0.00 0.00 96 1015.0
20260507030146 21 213 1.6 1.6 0.00 0.00 0.00 96 1015.0
20260507025840 21 213 1.6 1.6 0.00 0.00 0.00 96 1015.0
20260507025538 21 213 1.6 1.6 0.00 0.00 0.00 96 1015.0
20260507025237 21 213 1.6 1.6 0.00 0.00 0.00 96 1015.0
20260507024925 21 213 1.6 1.6 0.00 0.00 0.00 96 1015.0
20260507024624 21 213 1.6 1.6 0.00 0.00 0.00 96 1015.0
20260507024323 21 213 1.6 1.6 0.00 0.00 0.00 96 1015.0
20260507024021 22 213 1.6 1.6 0.00 0.00 0.00 96 1015.0
20260507023720 22 213 1.6 1.6 0.00 0.00 0.00 96 1015.0
20260507023418 22 213 1.6 1.6 0.00 0.00 0.00 96 1014.0
20260507023116 22 213 1.6 1.6 0.00 0.00 0.00 96 1015.0
20260507022814 22 213 1.6 1.6 0.00 0.00 0.00 96 1014.0